Flag for Poland Weather past 2 weeks in Szczecin, Poland

52 °F


Feels Like: 51 °F
Forecast: 37 / 50 °F
Wind: 3 mph from East

Location: Szczecin Airport

Current Time: Oct 9, 2015 at 5:06:22 PM

Latest Report: Oct 9, 2015 at 4:30 PM

Visibility: 10 mi

Pressure: 30.24 "Hg

Humidity: 41%

Dew point: 28 °F

Location of SzczecinLocation

Historic Weather in Szczecin — Graph


Szczecin temperature yesterday

Maximum temperature yesterday: 55 °F (at 3:00 PM)
Minimum temperature yesterday: 43 °F (at 7:00 AM)
Average temperature yesterday: 49 °F

Past Weeks' High & Low Weather Summary

High68 °F (Oct 3, 3:00 PM)100% (Sep 25, 7:00 AM)30.72 "Hg (Sep 25, 7:00 AM)
Low34 °F (Oct 3, 7:00 AM)30% (Oct 9, 2:00 PM)29.89 "Hg (Oct 4, 3:30 AM)
Average52 °F77%30.25 "Hg
* Reported Sep 24 4:00 PM — Oct 9 4:00 PM, Szczecin, Weather by CustomWeather, © 2015

Note: Actual official high and low records may vary slightly from our data, if they occured in-between our weather recording intervals... More about our weather records


Szczecin weather history for previous 24 hours

Time TempWeatherWind HumidityBarometerVisibility
4:00 PM
Fri, Oct 9
52 °FSunny.5 mph35%30.24 "Hg10 mi
3:30 PM52 °FPassing clouds.6 mph35%30.24 "HgN/A
3:00 PM52 °FPassing clouds.8 mph35%30.24 "HgN/A
2:30 PM52 °FPassing clouds.10 mph30%30.24 "HgN/A
2:00 PM54 °FPassing clouds.13 mph30%30.24 "HgN/A
1:30 PM52 °FPassing clouds.12 mph32%30.27 "HgN/A
1:00 PM52 °FPassing clouds.9 mph35%30.27 "HgN/A
12:30 PM50 °FPassing clouds.8 mph40%30.27 "HgN/A
12:00 PM50 °FPassing clouds.10 mph37%30.27 "HgN/A
11:30 AM50 °FPassing clouds.8 mph43%30.27 "HgN/A
11:00 AM46 °FPassing clouds.8 mph46%30.27 "HgN/A
10:30 AM46 °FPassing clouds.10 mph46%30.27 "HgN/A
10:00 AM46 °FSunny.9 mph50%30.24 "Hg10 mi
9:30 AM45 °FSunny.9 mph53%30.24 "Hg10 mi
9:00 AM43 °FSunny.7 mph57%30.24 "Hg10 mi
8:30 AM41 °FSunny.6 mph57%30.24 "Hg10 mi
8:00 AM41 °FClear.7 mph57%30.24 "Hg10 mi
7:30 AM41 °FClear.7 mph61%30.21 "Hg10 mi
7:00 AM41 °FClear.7 mph61%30.21 "Hg10 mi
6:00 AM46 °FClear.7 mph40%30.21 "Hg10 mi
5:30 AM41 °FClear.8 mph61%30.21 "Hg10 mi
5:00 AM43 °FClear.8 mph57%30.21 "Hg10 mi
4:30 AM43 °FClear.8 mph57%30.21 "Hg10 mi
4:00 AM43 °FClear.8 mph57%30.21 "Hg10 mi
3:30 AM43 °FClear.6 mph61%30.21 "Hg10 mi
3:00 AM43 °FClear.5 mph57%30.21 "Hg10 mi
2:30 AM43 °FClear.6 mph61%30.21 "Hg10 mi
2:00 AM43 °FClear.6 mph61%30.21 "Hg10 mi
1:30 AM45 °FClear.7 mph57%30.21 "Hg10 mi
1:00 AM45 °FClear.8 mph57%30.21 "Hg10 mi
12:30 AM45 °FClear.8 mph57%30.21 "Hg10 mi
12:00 AM45 °FClear.7 mph57%30.21 "Hg10 mi
11:30 PM
Thu, Oct 8
46 °FClear.6 mph53%30.21 "Hg10 mi
11:00 PM46 °FClear.8 mph57%30.21 "Hg10 mi
10:30 PM48 °FClear.9 mph54%30.21 "Hg10 mi
10:00 PM48 °FClear.8 mph58%30.18 "Hg10 mi
9:30 PM48 °FClear.7 mph58%30.18 "Hg10 mi
9:00 PM48 °FClear.7 mph58%30.18 "Hg10 mi
8:30 PM48 °FClear.7 mph58%30.18 "Hg10 mi
8:00 PM50 °FClear.6 mph54%30.18 "Hg10 mi
7:30 PM50 °FClear.6 mph54%30.18 "Hg10 mi
7:00 PM50 °FSunny.5 mph58%30.18 "Hg10 mi
6:30 PM52 °FSunny.5 mph54%30.15 "Hg10 mi
6:00 PM52 °FSunny.5 mph50%30.15 "Hg10 mi
5:30 PM54 °FSunny.3 mph47%30.15 "Hg10 mi
5:00 PM54 °FSunny.5 mph44%30.15 "Hg10 mi
Weather by CustomWeather, © 2015

See weather overviewHow to use our weather pages